Tracking 28790 objects as of 19-Apr-2024
HD Live streaming from Space Station
objects crossing your sky now

THORAD AGENA D DEB

Track THORAD AGENA D DEB now!
10-day predictions


NORAD ID: 4749
Int'l Code: 1970-025CX
Perigee: 949.5 km
Apogee: 971.2 km
Inclination: 99.1 °
Period: 104.1 minutes
Semi major axis: 7331 km
RCS: 0.0977 m2 (small)
Launch date: April 8, 1970
Source: United States (US)
Launch site: AIR FORCE WESTERN TEST RANGE (AFWTR)

Note: This is SATELLITE DEBRIS
Your satellite tracking list
Your tracking list is empty




NASA's NSSDC Master Catalog

Two Line Element Set (TLE):
1 04749U 70025CX  24109.55367961  .00002641  00000-0  24527-2 0  9991
2 04749  99.0586 323.6221 0014803 331.6860  28.3489 13.83007462694068
Source of the keplerian elements: AFSPC